TimeAKST,TemperatureF,Dew PointF,Humidity,Sea Level PressureIn,VisibilityMPH,Wind Direction,Wind SpeedMPH,Gust SpeedMPH,PrecipitationIn,Events,Conditions,WindDirDegrees,DateUTC
12:53 AM,46.0,34.0,63,29.43,10.0,East,10.4,18.4,0.00,Rain,Light Rain,100,2013-01-23 09:53:00
1:53 AM,46.0,34.0,63,29.42,10.0,ESE,13.8,23.0,0.00,,Overcast,110,2013-01-23 10:53:00
3:53 AM,44.1,35.1,71,29.39,10.0,ENE,5.8,-,0.00,,Overcast,60,2013-01-23 12:53:00
4:53 AM,43.0,35.1,74,29.38,10.0,East,4.6,-,0.00,Rain,Light Rain,100,2013-01-23 13:53:00
5:53 AM,43.0,35.1,74,29.37,10.0,ENE,4.6,-,0.00,Rain,Light Rain,70,2013-01-23 14:53:00
6:53 AM,43.0,34.0,71,29.37,10.0,East,8.1,-,0.00,,Overcast,100,2013-01-23 15:53:00
7:53 AM,43.0,34.0,71,29.37,10.0,East,4.6,-,0.00,,Overcast,100,2013-01-23 16:53:00
8:53 AM,42.1,33.1,70,29.37,10.0,East,6.9,-,N/A,,Overcast,80,2013-01-23 17:53:00
9:53 AM,43.0,33.1,68,29.38,10.0,East,8.1,17.3,0.00,,Overcast,100,2013-01-23 18:53:00
10:53 AM,44.1,30.9,60,29.38,10.0,ENE,9.2,21.9,0.00,,Overcast,70,2013-01-23 19:53:00
11:53 AM,45.0,30.9,58,29.37,10.0,East,11.5,19.6,N/A,,Overcast,90,2013-01-23 20:53:00
12:53 PM,44.1,30.9,60,29.37,10.0,East,9.2,18.4,0.00,Rain,Light Rain,90,2013-01-23 21:53:00
1:53 PM,45.0,30.9,58,29.35,10.0,ESE,8.1,18.4,0.00,,Overcast,120,2013-01-23 22:53:00
2:53 PM,43.0,33.1,68,29.36,10.0,East,8.1,19.6,N/A,,Overcast,80,2013-01-23 23:53:00
3:53 PM,43.0,33.1,68,29.36,10.0,East,8.1,18.4,0.00,Rain,Light Rain,90,2013-01-24 00:53:00
4:53 PM,43.0,30.9,62,29.37,10.0,ESE,10.4,23.0,0.00,,Overcast,110,2013-01-24 01:53:00
5:53 PM,42.1,30.9,65,29.37,10.0,ESE,13.8,23.0,N/A,,Overcast,110,2013-01-24 02:53:00
6:53 PM,42.1,30.9,65,29.39,10.0,ESE,11.5,23.0,N/A,,Overcast,120,2013-01-24 03:53:00
7:53 PM,42.1,30.9,65,29.39,10.0,East,11.5,19.6,N/A,,Overcast,90,2013-01-24 04:53:00
8:53 PM,42.1,30.9,65,29.41,10.0,East,4.6,-,N/A,,Overcast,80,2013-01-24 05:53:00
9:53 PM,41.0,32.0,70,29.43,10.0,ESE,9.2,-,0.00,Rain,Light Rain,120,2013-01-24 06:53:00
10:53 PM,39.9,33.1,77,29.45,10.0,ESE,10.4,-,0.00,Rain,Light Rain,110,2013-01-24 07:53:00
11:53 PM,39.0,33.1,79,29.47,10.0,ESE,6.9,-,0.00,Rain,Light Rain,110,2013-01-24 08:53:00